Regional Weather Roundup
Issued by NWS Newport/Morehead, NC

Home | Current Version | Previous Version | Text Only | Print | Product List | Glossary On
Versions: 1 2 3 4 5 6 7 8 9 10 11 12 13 14 15 16 17 18 19 20 21 22 23 24 25 26 27 28 29 30 31 32 33 34 35 36 37 38 39 40 41 42 43 44 45 46 47 48 49 50
000
ASUS42 KMHX 160725
RWRMHX
WEATHER ROUNDUP FOR EASTERN NORTH CAROLINA
NATIONAL WEATHER SERVICE NEWPORT/MOREHEAD CITY NC
200 AM EST SAT DEC 16 2017

NOTE: "FAIR" INDICATES FEW OR NO CLOUDS BELOW 12,000 FEET
WITH NO SIGNIFICANT WEATHER AND/OR OBSTRUCTIONS TO VISIBILITY

NCZ015>017-031-032-045>047-102-103-160800-
NORTH COAST

CITY           SKY/WX    TMP DP  RH WIND       PRES   REMARKS
EDENTON        CLEAR     36  27  69 NW6       30.14R
ELIZABETH CITY PTCLDY    29  25  85 W7        30.12R
KITTY HAWK     SUNNY     35  27  74 CALM      30.10R
MANTEO         CLEAR     37  27  67 N8        30.12R

$$

NCZ045>047-081-094-103-104-160800-
CENTRAL COAST

CITY           SKY/WX    TMP DP  RH WIND       PRES   REMARKS
FRISCO         CLEAR     41  30  65 NW12G22   30.12R

$$

NCZ095-097-098-100-101-160800-
SOUTHERN COAST

CITY           SKY/WX    TMP DP  RH WIND       PRES   REMARKS
BEAUFORT       CLEAR     37  30  75 N8        30.13R
CEDAR ISLAND   NOT AVBL
JACKSONVILLE   CLEAR     36  29  75 NW7       30.15R
PINEY ISLAND     N/A    N/A N/A N/A NW13      30.13R
WILMINGTON     CLEAR     39  30  70 NW5       30.15R


$$

NCZ011>013-027>030-043-044-078>080-089-090>093-098-160800-
COASTAL PLAIN

CITY           SKY/WX    TMP DP  RH WIND       PRES   REMARKS
AHOSKIE        PTCLDY    27  24  91 CALM      30.14R
CLINTON        PTCLDY    32  29  89 CALM      30.17R
ELIZABETHTOWN  NOT AVBL
GOLDSBORO      CLEAR     35  24  64 NW7       30.14R
GREENVILLE     CLEAR     32  27  80 CALM      30.16R
HAVELOCK       PTCLDY    37  29  72 NW8       30.15R
KENANSVILLE    PTCLDY    34  25  69 N3        30.16R
KINSTON        NOT AVBL
NEW BERN       CLEAR     33  28  81 NW5       30.15R
RICHLANDS      CLEAR     34  27  75 N3        30.15R
ROCKY MOUNT    PTCLDY    32  24  72 W3        30.15R
WASHINGTON     CLEAR     32  26  76 CALM      30.15R
WHITEVILLE     CLEAR     36  32  84 CALM      30.16R

$$

AMZ130-135-150-152-154-156-158-170-250-252-270-ANZ085-086-088-633-658-670-160800-
MARINE OBSERVATIONS

STATION/POSITION TIME  TEMP    WIND        PRES    WAVE   SWELL
                       AIR SEA DIR/SP/G            HT/PER HT/PER
                 (UTC) (F)     (DEG/KT/KT) (MB)    (FT/S) (FT/S)
CHESAPEAKE LIGHT NOT AVBL
64 E VA BEACH    0650   42 58  320/ 19/ 23 1018.7    6/ 6
DUCK             0700   35 51  310/ 11/ 14 1019.1
2 E DUCK         0700      54                N/A     3/ 6
OREGON INLET     0700   38 47  320/  9/ 12 1019.7
13E OREGON INLT  0648      62                N/A     5/ 5   3/ 5
HATTERAS CG      0700   42 54  320/ 19/ 22 1019.7
DIAMOND BUOY     0700   46 73  330/ 19/ 25 1019.7
CAPE LOOKOUT     0700          340/ 12/ 16 1020.5
BEAUFORT LAB     0700   40 50  340/  5/  8 1020.3
30 SE NEW RVR IN 0708   47 64   10/ 14/ 19 1020.8
30 SE NEW RVR IN 0700      64                N/A     5/ 5
27 SE WRIGHTSVLE 0708   48 64  350/ 16/ 23 1020.5
5 SE WRIGHTSVLE  0708   45 56  350/ 12/ 17 1020.3
225 S CAPE HAT   0650   71 74  300/ 25/ 29 1016.4   12/ 8
41 SE CHARLESTON 0700   55 72  340/ 16/ 19 1020.4

$$



USA.gov is the U.S. government's official web portal to all federal, state and local government web resources and services.